Date String (YYYY-MM-DD hh:mm:ss) UTC,Instrument flags,Ambient pressure (hPa),Sample flow (lpm),Bypass flow (lpm),Sample temperature (°C),Ambient temperature (°C),ASC tube jacket temperature (°C),LED temperature (°C),Box temperature (°C),Sample RH (%),Span deviation,Mass concentration (μg/m³),Mass concentration (μg/m³),Mass concentration (μg/m³)
DateTimeUTC,F1_M11,P_M11,Q1_M11,Q2_M11,T1_M11,T2_M11,T3_M11,T4_M11,T5_M11,U1_M11,ZSPAN_M11,X0_M11,X2_M11,X1_M11
2022-11-07 22:00:00,,0822.6,5.00,0.00,28.2,27.1,00.0,36.9,30.2,12.4,0000.0,0017.94,0006.52,0005.13
2022-11-07 22:01:00,,0822.6,5.00,0.00,28.2,27.1,00.0,36.9,30.2,12.4,0000.0,0017.27,0006.48,0005.14
2022-11-07 22:02:00,,0822.6,4.99,0.00,28.3,27.1,00.0,36.9,30.2,12.4,0000.0,0017.52,0006.51,0005.16
2022-11-07 22:03:00,,0822.7,5.00,0.00,28.3,27.1,00.0,36.9,30.2,12.5,0000.0,0017.82,0006.50,0005.17
2022-11-07 22:04:00,,0822.7,5.00,0.00,28.3,27.1,00.0,36.9,30.2,12.4,0000.0,0017.72,0006.52,0005.18
2022-11-07 22:05:00,,0822.7,5.00,0.00,28.3,27.2,00.0,37.0,30.2,12.4,0000.0,0017.79,0006.51,0005.17
2022-11-07 22:06:00,,0822.6,5.00,0.00,28.3,27.2,00.0,37.0,30.2,12.5,0000.0,0017.29,0006.55,0005.18
2022-11-07 22:07:00,,0822.6,5.00,0.00,28.3,27.2,00.0,37.0,30.2,12.4,0000.0,0017.03,0006.56,0005.19
2022-11-07 22:08:00,,0822.6,5.00,0.00,28.3,27.2,00.0,37.0,30.3,12.3,0000.0,0016.86,0006.62,0005.21
2022-11-07 22:09:00,,0822.6,5.00,0.00,28.3,27.2,00.0,37.0,30.3,12.4,0000.0,0016.36,0006.66,0005.23
2022-11-07 22:10:00,,0822.6,5.00,0.00,28.4,27.3,00.0,37.0,30.3,12.4,0000.0,0016.83,0006.71,0005.25
2022-11-07 22:11:00,,0822.6,5.00,0.00,28.4,27.3,00.0,37.0,30.3,12.4,0000.0,0020.99,0007.08,0005.27
2022-11-07 22:12:00,,0822.6,5.00,0.00,28.4,27.3,00.0,37.0,30.3,12.4,0000.0,0023.00,0007.22,0005.29
2022-11-07 22:13:00,,0822.6,5.00,0.00,28.4,27.3,00.0,37.0,30.3,12.3,0000.0,0022.54,0007.23,0005.30
2022-11-07 22:14:00,,0822.6,5.00,0.00,28.4,27.3,00.0,37.1,30.3,12.3,0000.0,0022.34,0007.26,0005.33
2022-11-07 22:15:00,,0822.6,5.00,0.00,28.4,27.3,00.0,37.1,30.3,12.3,0000.0,0023.15,0007.27,0005.35
2022-11-07 22:16:00,,0822.6,5.00,0.00,28.4,27.3,00.0,37.1,30.3,12.4,0000.0,0022.96,0007.29,0005.38
2022-11-07 22:17:00,,0822.6,5.00,0.00,28.4,27.3,00.0,37.1,30.4,12.4,0000.0,0022.91,0007.31,0005.40
2022-11-07 22:18:00,,0822.7,5.00,0.00,28.4,27.3,00.0,37.1,30.4,12.5,0000.0,0022.55,0007.27,0005.40
2022-11-07 22:19:00,,0822.7,5.00,0.00,28.5,27.3,00.0,37.1,30.4,12.4,0000.0,0023.50,0007.28,0005.41
2022-11-07 22:20:00,,0822.7,5.00,0.00,28.5,27.4,00.0,37.1,30.4,12.5,0000.0,0024.47,0007.29,0005.43
2022-11-07 22:21:00,,0822.6,5.00,0.00,28.5,27.4,00.0,37.1,30.4,12.5,0000.0,0024.95,0007.32,0005.44
2022-11-07 22:22:00,,0822.7,5.00,0.00,28.5,27.4,00.0,37.2,30.4,12.5,0000.0,0021.98,0007.01,0005.44
2022-11-07 22:23:00,,0822.6,5.00,0.00,28.5,27.4,00.0,37.2,30.4,12.5,0000.0,0019.32,0006.81,0005.45
2022-11-07 22:24:00,,0822.6,4.99,0.00,28.5,27.4,00.0,37.2,30.4,12.5,0000.0,0018.15,0006.78,0005.46
2022-11-07 22:25:00,,0822.6,4.99,0.00,28.5,27.4,00.0,37.2,30.4,12.5,0000.0,0017.90,0006.78,0005.45
2022-11-07 22:26:00,,0822.6,5.00,0.00,28.5,27.4,00.0,37.2,30.4,12.6,0000.0,0017.59,0006.82,0005.44
2022-11-07 22:27:00,,0822.6,5.01,0.00,28.5,27.4,00.0,37.2,30.4,12.5,0000.0,0017.14,0006.83,0005.44
2022-11-07 22:28:00,,0822.6,5.00,0.00,28.6,27.4,00.0,37.2,30.5,12.5,0000.0,0017.34,0006.84,0005.44
2022-11-07 22:29:00,,0822.6,5.00,0.00,28.6,27.4,00.0,37.2,30.5,12.4,0000.0,0018.08,0006.88,0005.43
2022-11-07 22:30:00,,0822.6,5.00,0.00,28.6,27.4,00.0,37.2,30.5,12.4,0000.0,0018.02,0006.87,0005.42
2022-11-07 22:31:00,,0822.7,5.00,0.00,28.6,27.5,00.0,37.3,30.5,12.4,0000.0,0018.05,0006.87,0005.41
2022-11-07 22:32:00,,0822.6,4.99,0.00,28.6,27.5,00.0,37.3,30.5,12.3,0000.0,0018.35,0006.86,0005.41
2022-11-07 22:33:00,,0822.6,5.01,0.00,28.6,27.5,00.0,37.3,30.5,12.3,0000.0,0018.04,0006.84,0005.40
2022-11-07 22:34:00,,0822.6,5.00,0.00,28.6,27.5,00.0,37.3,30.5,12.3,0000.0,0018.47,0006.87,0005.39
2022-11-07 22:35:00,,0822.6,5.01,0.00,28.6,27.5,00.0,37.3,30.5,12.2,0000.0,0018.62,0006.88,0005.39
2022-11-07 22:36:00,,0822.6,5.00,0.00,28.6,27.5,00.0,37.3,30.6,12.4,0000.0,0019.78,0006.87,0005.39
2022-11-07 22:37:00,,0822.6,5.00,0.00,28.7,27.5,00.0,37.3,30.6,12.3,-000.0,0020.11,0006.84,0005.40
2022-11-07 22:38:00,,0822.6,5.00,0.00,28.7,27.6,00.0,37.3,30.6,12.3,-000.1,0020.28,0006.83,0005.40
2022-11-07 22:39:00,,0822.6,4.99,0.00,28.7,27.6,00.0,37.4,30.6,12.2,0000.2,0020.68,0006.81,0005.41
2022-11-07 22:40:00,,0822.6,4.99,0.00,28.7,27.6,00.0,37.4,30.6,12.3,0000.4,0020.35,0006.78,0005.41
2022-11-07 22:41:00,,0822.7,5.00,0.00,28.7,27.6,00.0,37.4,30.6,12.2,0000.6,0020.00,0006.79,0005.42
2022-11-07 22:42:00,,0822.6,5.00,0.00,28.7,27.6,00.0,37.4,30.6,12.3,0000.2,0018.84,0006.78,0005.43
2022-11-07 22:43:00,,0822.7,5.01,0.00,28.7,27.6,00.0,37.4,30.7,12.3,0000.0,0017.41,0006.73,0005.43
2022-11-07 22:44:00,,0822.7,5.01,0.00,28.7,27.6,00.0,37.4,30.7,12.3,0000.0,0016.56,0006.74,0005.44
2022-11-07 22:45:00,,0822.6,5.00,0.00,28.8,27.6,00.0,37.4,30.7,12.3,0000.3,0017.20,0006.77,0005.46
2022-11-07 22:46:00,,0822.6,4.98,0.00,28.8,27.6,00.0,37.4,30.7,12.3,0000.5,0017.72,0006.80,0005.47
2022-11-07 22:47:00,,0822.6,5.00,0.00,28.8,27.6,00.0,37.5,30.7,12.4,0000.5,0018.04,0006.83,0005.50
2022-11-07 22:48:00,,0822.6,4.99,0.00,28.8,27.6,00.0,37.5,30.7,12.4,0000.2,0016.88,0006.88,0005.52
2022-11-07 22:49:00,,0822.6,5.00,0.00,28.8,27.6,00.0,37.5,30.7,12.3,0000.0,0016.66,0006.93,0005.54
2022-11-07 22:50:00,,0822.7,5.00,0.00,28.8,27.7,00.0,37.5,30.7,12.3,0000.0,0016.32,0006.95,0005.55
2022-11-07 22:51:00,,0822.7,5.00,0.00,28.8,27.7,00.0,37.5,30.7,12.3,0000.0,0016.49,0006.99,0005.59
2022-11-07 22:52:00,,0822.7,5.00,0.00,28.8,27.7,00.0,37.5,30.7,12.3,0000.0,0017.97,0007.02,0005.62
2022-11-07 22:53:00,,0822.6,5.00,0.00,28.8,27.7,00.0,37.5,30.7,12.3,0000.0,0019.15,0007.03,0005.65
2022-11-07 22:54:00,,0822.7,5.00,0.00,28.9,27.7,00.0,37.5,30.8,12.3,0000.0,0020.04,0007.06,0005.66
2022-11-07 22:55:00,,0822.6,5.00,0.00,28.9,27.7,00.0,37.5,30.8,12.2,0000.0,0021.69,0007.06,0005.67
2022-11-07 22:56:00,,0822.6,5.00,0.00,28.9,27.7,00.0,37.6,30.8,12.1,0000.0,0022.04,0007.03,0005.68
2022-11-07 22:57:00,,0822.5,5.00,0.00,28.9,27.7,00.0,37.6,30.8,12.0,0000.0,0021.39,0006.98,0005.68
2022-11-07 22:58:00,,0822.6,5.00,0.00,28.9,27.7,00.0,37.6,30.8,12.0,0000.0,0020.77,0006.99,0005.67
2022-11-07 22:59:00,,0822.6,5.00,0.00,28.9,27.7,00.0,37.6,30.8,12.0,0000.0,0020.72,0006.95,0005.66
